Location: Corralito
(10.2667°N, 66.9500°W)
Time: 21:32:33
(UTC+00:00)

Spot 4 Rocket - Visible Passes

Search period start: 24 April 2024 00:00
Search period end: 04 May 2024 00:00
Orbit: 773 x 776 km, 98.8° (Epoch: 24 April)

Date Brightness Start Highest point End Pass type
(mag) Time Alt. Az. Time Alt. Az. Time Alt. Az.
25 Apr 5.0 09:39:35 10° NNE 09:44:32 50° ESE 09:49:29 10° S visible
26 Apr 6.7 09:07:01 10° NE 09:10:39 20° E 09:14:16 10° SE visible
28 Apr 5.2 09:37:00 10° NNE 09:41:54 46° ESE 09:46:47 10° S visible
29 Apr 6.7 09:04:36 10° ENE 09:08:00 18° E 09:11:23 10° SE visible
01 May 5.4 09:34:24 10° NNE 09:39:14 42° ESE 09:44:03 10° S visible
02 May 6.8 09:02:10 10° ENE 09:05:19 16° E 09:08:26 10° SE visible
